Back to catalog

STARLINK-11497

AliveCommunicationsVLEO
NORAD 62470·PAYLOAD·🇺🇸 United States

Launched Dec 31, 2024 from Cape Canaveral Space Force Station

Loading…

Next Passes (next 24 hours)

TLE

FreshSource: CelesTrak SupGP

Epoch: Sep 14, 2026, 15:10 UTC

1 62470C 24254J   26257.63243056  .00008346  00000+0  64874-4 0  2577
2 62470  43.0004 164.1818 0001876 250.6008 196.1181 15.70813853    13

Track STARLINK-11497 in real time with AllMySat

Download on the App Store